When you browse on this site, cookies collect data to enhance your experience and personalize the content and advertising you see.
Visit our Privacy Policy to learn more. By continuing to use the site, you agree to this use of cookies and data.
  • In United Kingdom
  • List of Countries
  • For 7 days
  • Water Temperature
  • Satellite Maps
  • Weather Map
  • Weather Widgets
  • user-avatar
    Login

    Hourly Weather Lankaran

    Today, 23 July, Tuesday

    Time Temperature Precipitation Wind Pressure Humidity
    00:00 +16°C° 0 mm 3 mps 632 mmHg 82%
    01:00 +16°C° 0 mm 3 mps 632 mmHg 82%
    02:00 +16°C° 0 mm 2 mps 632 mmHg 83%
    03:00 +15°C° 0 mm 2 mps 632 mmHg 83%
    04:00 +16°C° 0 mm 2 mps 632 mmHg 80%
    05:00 +16°C° 0 mm 2 mps 633 mmHg 77%
    06:00 +16°C° 0 mm 2 mps 633 mmHg 74%
    07:00 +18°C° 0 mm 3 mps 633 mmHg 67%
    08:00 +20°C° 0 mm 3 mps 634 mmHg 59%
    09:00 +21°C° 0 mm 4 mps 634 mmHg 52%
    10:00 +22°C° 0 mm 4 mps 634 mmHg 49%
    11:00 +23°C° 0 mm 4 mps 634 mmHg 46%
    12:00 +25°C° 0 mm 4 mps 634 mmHg 43%
    13:00 +25°C° 0 mm 4 mps 633 mmHg 43%
    14:00 +26°C° 0 mm 4 mps 633 mmHg 43%
    15:00 +26°C° 0 mm 4 mps 633 mmHg 43%
    16:00 +23°C° 0 mm 4 mps 632 mmHg 48%
    17:00 +22°C° 0 mm 3 mps 632 mmHg 53%
    18:00 +21°C° 0 mm 2 mps 631 mmHg 59%
    19:00 +20°C° 0 mm 2 mps 631 mmHg 61%
    20:00 +19°C° 0 mm 1 mps 631 mmHg 63%
    21:00 +18°C° 0 mm 1 mps 630 mmHg 65%
    22:00 +18°C° 0 mm 1 mps 630 mmHg 63%
    23:00 +18°C° 0 mm 1 mps 630 mmHg 61%

    Tomorrow, 24 July, Wednesday

    Time Temperature Precipitation Wind Pressure Humidity
    00:00 +18°C° 0 mm 1 mps 630 mmHg 59%
    01:00 +18°C° 0 mm 1 mps 630 mmHg 60%
    02:00 +18°C° 0 mm 1 mps 630 mmHg 61%
    03:00 +16°C° 0 mm 1 mps 629 mmHg 62%
    04:00 +18°C° 0 mm 1 mps 630 mmHg 61%
    05:00 +19°C° 0 mm 1 mps 630 mmHg 60%
    06:00 +19°C° 0 mm 1 mps 630 mmHg 59%
    07:00 +20°C° 0 mm 2 mps 631 mmHg 55%
    08:00 +23°C° 0 mm 2 mps 632 mmHg 50%
    09:00 +25°C° 0 mm 3 mps 632 mmHg 45%
    10:00 +26°C° 0 mm 3 mps 632 mmHg 44%
    11:00 +27°C° 0 mm 3 mps 632 mmHg 43%
    12:00 +28°C° 0 mm 4 mps 632 mmHg 41%
    13:00 +27°C° 0 mm 4 mps 632 mmHg 43%
    14:00 +27°C° 0 mm 4 mps 631 mmHg 44%
    15:00 +27°C° 0 mm 4 mps 631 mmHg 46%
    16:00 +26°C° 0 mm 3 mps 630 mmHg 50%
    17:00 +25°C° 0 mm 3 mps 630 mmHg 54%
    18:00 +24°C° 0 mm 2 mps 630 mmHg 58%
    19:00 +23°C° 0 mm 1 mps 630 mmHg 61%
    20:00 +21°C° 0 mm 1 mps 630 mmHg 64%
    21:00 +18°C° 0 mm 0 mps 630 mmHg 67%
    22:00 +20°C° 0 mm 1 mps 630 mmHg 68%
    23:00 +20°C° 0 mm 1 mps 630 mmHg 69%

    Day after tomorrow, 25 July, Thursday

    Time Temperature Precipitation Wind Pressure Humidity
    00:00 +19°C° 0 mm 1 mps 630 mmHg 70%
    01:00 +19°C° 0 mm 1 mps 629 mmHg 70%
    02:00 +19°C° 0 mm 1 mps 629 mmHg 71%
    03:00 +18°C° 0 mm 1 mps 629 mmHg 71%
    04:00 +17°C° 0 mm 0 mps 630 mmHg 67%
    05:00 +18°C° 0 mm 0 mps 631 mmHg 63%
    06:00 +19°C° 0 mm 0 mps 631 mmHg 60%
    07:00 +23°C° 0 mm 1 mps 632 mmHg 53%
    08:00 +25°C° 0 mm 1 mps 633 mmHg 47%
    09:00 +26°C° 0 mm 2 mps 633 mmHg 40%
    10:00 +28°C° 0 mm 2 mps 633 mmHg 36%
    11:00 +29°C° 0 mm 2 mps 633 mmHg 33%
    12:00 +30°C° 0 mm 3 mps 634 mmHg 29%
    13:00 +30°C° 0 mm 3 mps 633 mmHg 29%
    14:00 +30°C° 0 mm 3 mps 633 mmHg 30%
    15:00 +30°C° 0 mm 4 mps 632 mmHg 30%
    16:00 +28°C° 0 mm 3 mps 632 mmHg 34%
    17:00 +27°C° 0 mm 3 mps 632 mmHg 38%
    18:00 +25°C° 0 mm 3 mps 631 mmHg 41%
    19:00 +24°C° 0 mm 2 mps 631 mmHg 44%
    20:00 +22°C° 0 mm 1 mps 631 mmHg 46%
    21:00 +21°C° 0 mm 1 mps 631 mmHg 48%
    22:00 +20°C° 0 mm 1 mps 631 mmHg 50%
    23:00 +20°C° 0 mm 1 mps 631 mmHg 52%

    26 July, Friday

    Time Temperature Precipitation Wind Pressure Humidity
    00:00 +19°C° 0 mm 1 mps 631 mmHg 55%
    01:00 +19°C° 0 mm 1 mps 631 mmHg 56%
    02:00 +17°C° 0 mm 2 mps 631 mmHg 58%
    03:00 +17°C° 0 mm 2 mps 631 mmHg 60%
    04:00 +17°C° 0 mm 2 mps 632 mmHg 59%
    05:00 +18°C° 0 mm 2 mps 632 mmHg 58%
    06:00 +18°C° 0 mm 2 mps 633 mmHg 57%
    07:00 +19°C° 0 mm 3 mps 633 mmHg 55%
    08:00 +20°C° 0 mm 4 mps 634 mmHg 53%
    09:00 +21°C° 0 mm 5 mps 634 mmHg 51%
    10:00 +22°C° 0 mm 5 mps 634 mmHg 50%
    11:00 +22°C° 0 mm 5 mps 634 mmHg 49%
    12:00 +23°C° 0 mm 5 mps 634 mmHg 48%
    13:00 +23°C° 0 mm 5 mps 633 mmHg 49%
    14:00 +22°C° 0 mm 5 mps 633 mmHg 51%
    15:00 +22°C° 0 mm 5 mps 632 mmHg 52%
    16:00 +21°C° 0 mm 4 mps 632 mmHg 57%
    17:00 +20°C° 0 mm 4 mps 632 mmHg 61%
    18:00 +18°C° 0 mm 3 mps 631 mmHg 66%
    19:00 +17°C° 0 mm 3 mps 631 mmHg 71%
    20:00 +16°C° 0 mm 2 mps 631 mmHg 76%
    21:00 +14°C° 0 mm 1 mps 631 mmHg 81%
    22:00 +14°C° 0 mm 1 mps 631 mmHg 81%
    23:00 +14°C° 0 mm 1 mps 631 mmHg 81%

    27 July, Saturday

    Time Temperature Precipitation Wind Pressure Humidity
    00:00 +14°C° 0 mm 1 mps 631 mmHg 81%
    01:00 +14°C° 0 mm 1 mps 631 mmHg 81%
    02:00 +14°C° 0 mm 1 mps 631 mmHg 80%
    03:00 +14°C° 0 mm 1 mps 631 mmHg 80%
    04:00 +14°C° 0 mm 1 mps 631 mmHg 76%
    05:00 +15°C° 0 mm 2 mps 631 mmHg 72%
    06:00 +15°C° 0 mm 2 mps 631 mmHg 68%
    07:00 +17°C° 0 mm 2 mps 632 mmHg 62%
    08:00 +19°C° 0 mm 3 mps 632 mmHg 55%
    09:00 +20°C° 0 mm 4 mps 633 mmHg 48%
    10:00 +21°C° 0 mm 4 mps 633 mmHg 47%
    11:00 +22°C° 0 mm 4 mps 632 mmHg 45%
    12:00 +23°C° 0 mm 4 mps 632 mmHg 44%
    13:00 +23°C° 0 mm 4 mps 632 mmHg 45%
    14:00 +23°C° 0 mm 4 mps 631 mmHg 46%
    15:00 +23°C° 0 mm 4 mps 631 mmHg 47%
    16:00 +22°C° 0 mm 3 mps 630 mmHg 51%
    17:00 +20°C° 0 mm 3 mps 630 mmHg 55%
    18:00 +19°C° 0 mm 3 mps 629 mmHg 59%
    19:00 +18°C° 0 mm 2 mps 629 mmHg 62%
    20:00 +18°C° 0 mm 1 mps 629 mmHg 65%
    21:00 +16°C° 0 mm 1 mps 629 mmHg 68%
    22:00 +16°C° 0 mm 1 mps 629 mmHg 67%
    23:00 +14°C° 0 mm 0 mps 629 mmHg 67%

    28 July, Sunday

    Time Temperature Precipitation Wind Pressure Humidity
    00:00 +14°C° 0 mm 0 mps 629 mmHg 66%
    01:00 +14°C° 0 mm 0 mps 628 mmHg 67%
    02:00 +13°C° 0 mm 0 mps 628 mmHg 68%
    03:00 +14°C° 0 mm 1 mps 628 mmHg 68%
    04:00 +15°C° 0 mm 1 mps 628 mmHg 66%
    05:00 +15°C° 0 mm 1 mps 628 mmHg 63%
    06:00 +15°C° 0 mm 0 mps 629 mmHg 60%
    07:00 +19°C° 0 mm 1 mps 629 mmHg 55%
    08:00 +20°C° 0 mm 2 mps 630 mmHg 50%
    09:00 +21°C° 0 mm 3 mps 630 mmHg 45%
    10:00 +22°C° 0 mm 3 mps 630 mmHg 43%
    11:00 +24°C° 0 mm 3 mps 630 mmHg 40%
    12:00 +25°C° 0 mm 4 mps 630 mmHg 38%
    13:00 +25°C° 0 mm 4 mps 629 mmHg 39%
    14:00 +25°C° 0 mm 4 mps 629 mmHg 40%
    15:00 +25°C° 0 mm 4 mps 628 mmHg 41%
    16:00 +24°C° 0 mm 3 mps 628 mmHg 45%
    17:00 +21°C° 0 mm 3 mps 628 mmHg 49%
    18:00 +20°C° 0 mm 2 mps 627 mmHg 53%
    19:00 +19°C° 0 mm 2 mps 627 mmHg 56%
    20:00 +19°C° 0 mm 1 mps 627 mmHg 59%
    21:00 +16°C° 0 mm 0 mps 627 mmHg 62%
    22:00 +15°C° 0 mm 0 mps 627 mmHg 62%
    23:00 +15°C° 0 mm 0 mps 627 mmHg 62%
    Show more